Theta_e
341 339 341 339 341 340 339 335 335 337 339 339 344 346 344 343 345 343 340 353 350 351 355 356 355 356 355 354 353 355 354 352 351 349 348 348 347 347 348 348 349 348 347
341 341 340 341 341 340 339 335 337 338 341 343 344 347 347 345 346 345 346 347 350 350 352 355 356 357 357 356 355 354 353 352 351 350 349 348 347 346 347 347 348 348 347
341 343 341 342 342 341 339 340 340 339 339 343 344 347 346 344 345 345 344 345 346 350 352 354 356 356 357 358 358 356 353 351 351 350 349 348 347 346 346 347 347 348 348
345 342 342 340 340 340 341 340 339 337 340 339 338 336 341 344 346 344 345 346 345 347 351 353 354 355 356 358 359 357 354 351 349 348 348 348 348 347 346 346 346 347 347
347 344 343 342 340 340 338 336 335 335 333 332 332 332 338 341 343 345 343 342 343 345 345 350 352 352 353 355 358 359 356 351 349 348 348 348 348 348 347 346 346 345 346
346 347 346 343 344 341 339 337 334 335 333 333 336 335 340 342 342 342 341 343 343 345 344 343 347 348 350 353 354 358 358 354 350 348 347 346 347 348 347 347 346 345 344
347 344 345 347 343 343 341 340 337 335 335 334 332 333 338 341 341 342 343 343 342 343 344 346 345 343 346 350 350 354 359 358 354 350 346 345 346 347 347 347 346 345 343
349 348 344 343 347 345 343 340 341 336 336 336 333 330 327 331 338 341 341 341 342 345 345 344 343 346 346 347 346 349 355 358 358 354 348 345 346 347 348 347 346 345 343
347 345 347 346 344 345 344 344 344 338 336 334 337 332 323 321 327 335 338 341 342 343 344 345 343 349 350 348 347 346 348 352 357 357 353 347 346 347 348 347 346 345 344
336 337 330 346 343 344 342 343 347 340 333 332 338 341 334 328 322 322 333 338 340 341 342 340 343 337 334 336 338 338 334 336 349 355 354 351 349 349 349 348 346 345 344
330 330 330 345 327 329 345 344 344 344 338 336 337 338 339 335 329 323 319 325 332 338 338 339 335 330 334 337 334 334 330 332 332 343 349 350 351 351 350 349 348 346 345
336 343 345 335 328 337 345 340 334 335 339 339 338 338 334 332 331 325 321 321 321 325 332 333 331 332 333 334 339 330 330 331 334 335 339 341 344 347 348 349 349 349 348
328 330 336 340 342 334 329 326 321 325 332 331 325 322 320 323 332 331 326 323 322 324 323 325 328 328 330 329 331 331 332 331 330 330 331 333 336 338 341 344 346 348 348
329 331 332 334 336 334 333 332 323 322 323 326 327 328 324 321 321 330 328 324 317 316 315 318 324 326 324 325 328 332 331 331 330 328 325 326 329 331 333 336 338 340 341
332 332 330 328 332 333 330 331 325 323 325 323 321 321 320 322 321 319 331 329 321 313 313 317 321 328 330 330 332 333 334 333 329 326 324 323 324 326 327 328 330 332 334
330 331 332 332 330 326 327 326 323 322 321 320 321 320 320 322 322 327 330 327 325 319 314 319 318 325 326 331 332 333 334 330 328 325 325 324 323 322 323 324 325 327 330
324 326 330 332 333 324 321 318 317 320 321 320 319 316 317 323 322 326 329 326 323 318 315 315 319 321 319 322 326 333 333 331 331 326 326 324 321 320 321 322 322 323 326
322 320 320 322 324 327 326 323 320 323 324 319 317 317 316 322 320 324 331 325 321 317 314 312 312 315 317 318 325 329 332 335 334 332 325 323 320 319 318 318 318 319 320
318 320 317 318 318 321 328 327 326 324 319 318 316 318 318 319 319 327 331 326 322 321 315 313 313 319 320 323 325 326 327 329 334 333 325 321 320 318 318 317 316 318 317
317 317 318 317 319 317 324 327 325 319 319 317 317 318 321 324 326 330 328 326 323 318 315 315 316 317 319 319 321 320 320 323 325 333 329 326 324 322 318 317 317 319 313
313 315 317 317 317 317 318 313 315 320 321 318 318 322 323 325 326 327 327 324 322 319 317 315 311 308 310 311 313 318 318 320 322 325 325 327 326 325 325 317 321 320 314
310 313 316 315 314 317 308 305 312 314 318 321 322 324 324 319 317 317 317 316 318 315 313 309 307 304 306 309 311 312 315 315 315 323 322 321 326 325 327 328 320 317 312
304 308 313 313 311 310 306 305 306 315 315 319 319 318 320 319 316 315 311 309 308 307 308 308 305 308 308 312 313 312 314 314 316 319 321 318 323 324 328 332 318 313 311
303 304 306 312 311 312 305 303 305 314 314 315 318 319 315 316 317 315 309 306 307 307 308 311 310 311 314 315 318 314 312 313 316 317 322 316 320 322 326 330 317 314 310
301 304 306 309 310 310 303 302 306 312 313 315 321 322 316 318 311 308 312 309 311 313 311 307 306 305 306 306 304 310 309 313 316 314 320 319 318 319 323 326 324 313 311
301 303 303 306 310 311 304 300 304 313 314 314 314 320 308 312 306 303 316 313 312 313 315 314 311 307 304 306 300 310 313 314 315 316 324 317 316 318 319 326 321 315 313
Wind_Speed
7 6 8 8 8 7 7 7 8 8 9 9 10 9 9 9 7 4 4 15 14 13 14 15 14 14 13 12 12 12 13 13 12 12 11 10 10 9 9 8 8 8 9
6 7 8 9 9 9 9 9 9 9 9 9 7 7 7 5 6 4 4 7 14 14 14 14 15 15 15 14 13 14 13 13 14 13 13 12 12 11 10 10 9 10 10
10 7 7 9 8 9 11 9 9 8 6 6 8 8 7 7 5 6 6 6 7 14 14 15 16 16 15 15 14 15 15 15 15 14 14 13 13 13 12 12 11 11 11
13 12 8 8 7 6 7 8 9 7 8 8 6 6 4 5 7 7 5 4 4 6 13 15 15 17 17 17 16 17 17 16 15 15 15 14 15 15 14 13 13 12 12
14 13 10 10 8 7 5 4 4 4 3 3 4 3 4 5 5 4 6 5 5 5 4 14 20 18 18 18 18 17 16 17 18 17 16 16 15 15 16 16 15 14 14
16 10 9 9 7 9 8 5 6 3 2 3 3 4 5 5 5 5 6 4 6 6 6 7 6 9 20 19 18 19 20 18 17 18 18 15 15 16 16 17 19 18 16
14 15 11 8 9 5 10 9 4 5 5 4 2 3 3 5 4 4 3 5 6 6 7 8 6 4 6 17 18 20 21 20 20 18 17 16 15 18 18 17 15 16 17
13 15 15 12 10 10 11 5 7 5 7 5 5 2 3 4 3 5 4 5 7 5 6 6 6 7 6 5 10 18 20 22 20 19 17 16 18 18 18 16 15 16 17
1 9 8 12 13 11 9 9 10 13 10 5 7 6 2 6 2 3 6 6 6 4 4 5 7 7 4 4 3 8 14 16 19 19 16 15 16 18 16 17 16 17 17
6 11 22 19 12 7 8 13 9 6 3 7 2 10 5 3 4 2 2 5 5 6 6 4 3 5 4 6 16 16 18 24 25 17 16 17 17 16 15 16 15 16 16
13 18 25 25 15 12 18 10 8 11 8 8 8 8 12 6 2 3 3 3 0 3 4 4 3 4 2 4 4 4 17 34 30 24 14 13 14 13 13 14 15 15 16
4 11 21 12 14 14 18 4 6 7 10 10 9 9 3 8 11 4 3 4 5 5 3 3 3 4 4 3 3 5 5 18 29 14 6 8 9 10 12 13 14 16 17
8 5 4 7 11 4 4 4 4 5 4 4 5 1 4 11 12 7 5 3 3 2 1 3 4 1 3 3 4 8 4 19 11 10 9 8 11 12 13 13 13 14 15
8 8 7 5 4 8 10 8 5 9 11 8 3 12 7 4 15 13 7 6 0 1 1 5 3 3 3 2 5 10 7 14 8 17 15 11 12 12 11 12 12 12 13
9 11 8 7 6 8 8 10 10 12 13 4 4 6 1 4 9 18 6 4 6 5 4 2 2 1 4 4 7 8 12 17 14 15 11 14 13 12 12 12 12 12 13
9 9 10 9 6 6 7 8 7 8 8 6 6 9 4 3 5 27 8 5 5 5 4 6 5 4 3 4 7 7 9 17 11 10 12 12 11 12 11 11 13 13 14
9 14 14 11 7 7 6 7 7 7 9 8 9 10 8 9 5 15 3 3 4 5 5 3 3 4 6 6 6 8 9 6 5 11 10 12 11 13 12 15 14 13 14
6 5 7 10 11 5 7 8 10 12 13 13 11 12 11 9 12 15 6 6 5 4 5 6 4 3 6 4 7 5 7 6 6 6 8 9 9 9 10 12 12 13 14
10 6 2 5 4 8 8 10 12 13 12 16 14 15 17 17 15 12 9 6 5 3 2 4 3 3 5 4 5 4 4 5 3 7 7 8 9 8 11 11 10 12 11
9 7 5 4 4 2 0 9 10 10 13 15 16 17 16 16 13 10 7 7 6 5 3 3 3 4 2 1 1 2 3 2 3 2 4 7 6 6 8 7 9 11 8
8 11 7 6 5 6 4 6 5 2 10 13 12 11 11 12 14 12 8 6 8 5 4 3 2 1 0 2 1 2 1 3 5 4 2 3 2 2 4 7 7 8 8
8 8 8 6 7 7 9 15 9 3 12 18 15 16 11 13 9 13 11 12 10 7 5 4 3 3 3 3 1 2 1 2 5 2 3 3 1 4 4 4 8 11 11
8 13 12 6 7 7 12 10 0 7 7 17 12 7 7 6 10 9 9 10 9 11 10 7 6 5 4 4 3 2 1 1 6 4 2 4 3 5 4 4 9 10 10
9 11 13 12 7 9 11 11 4 4 10 15 7 8 8 9 9 11 9 7 7 6 7 5 7 7 5 5 5 4 2 2 8 4 4 4 2 4 3 3 9 7 7
12 10 8 13 9 8 14 11 6 6 7 19 5 5 8 8 10 14 10 9 7 6 7 11 12 10 10 11 4 4 2 3 5 2 1 3 2 3 3 3 3 2 4
14 12 12 10 13 10 13 16 12 7 13 14 4 3 6 8 7 11 9 9 8 7 6 4 3 3 7 7 10 6 4 5 3 3 2 3 2 2 4 1 2 3 4
Wind_Direction
203 185 183 187 201 192 202 211 206 210 215 230 238 211 210 213 201 167 184 187 193 200 203 195 201 208 202 210 210 198 196 192 196 192 200 200 208 211 213 218 216 214 210
217 215 192 196 197 200 204 207 209 209 215 214 218 227 237 229 219 217 179 197 194 203 209 211 205 211 209 208 208 199 196 194 192 192 196 199 205 211 211 216 215 218 217
204 210 209 202 200 201 204 212 217 212 200 202 208 228 231 219 227 214 213 176 200 211 208 211 215 216 214 216 209 199 192 192 193 196 196 202 202 208 210 213 213 220 219
199 210 210 217 212 201 196 209 212 215 208 205 214 224 221 220 223 222 237 226 207 201 212 215 215 219 214 212 212 204 193 192 196 195 199 199 203 207 212 212 211 216 221
205 205 211 213 207 219 206 193 218 188 201 216 202 251 263 245 240 232 234 236 244 261 256 210 204 214 218 214 205 210 212 193 197 196 197 202 204 207 211 209 213 216 216
208 209 216 213 201 219 229 218 206 181 181 210 230 232 233 227 214 222 231 229 229 235 239 252 238 212 213 209 210 206 205 206 207 202 194 202 203 208 215 212 209 208 214
205 216 222 225 222 207 223 225 216 203 231 185 109 271 269 252 246 253 266 254 257 244 233 229 221 222 222 216 209 209 211 209 209 210 201 188 206 213 214 219 224 221 215
207 211 212 217 206 216 223 199 202 190 213 179 180 110 225 317 263 224 230 241 254 250 251 237 227 215 217 209 218 217 212 212 214 211 212 193 202 214 216 215 217 225 224
5 301 272 234 234 226 215 209 207 208 215 221 202 153 166 220 150 237 227 229 241 245 264 275 261 243 267 312 259 249 231 226 219 219 211 212 212 219 216 214 213 221 228
167 139 259 260 265 265 228 225 200 194 163 208 213 224 221 148 180 263 282 212 210 235 234 249 340 62 31 28 31 21 9 340 287 223 216 211 219 225 220 218 215 215 220
201 219 223 221 236 220 247 227 215 211 197 220 218 215 224 219 193 138 234 267 321 230 238 239 165 114 111 118 173 348 359 327 298 264 212 218 227 230 229 222 214 213 217
239 220 225 222 229 242 235 247 42 7 289 246 236 237 290 241 220 165 171 213 185 224 226 248 236 234 213 215 216 107 318 284 284 249 217 223 238 242 242 236 219 217 218
299 292 231 243 235 211 146 138 152 190 215 301 27 305 40 337 305 201 173 191 174 228 205 242 229 213 295 283 224 195 205 267 275 278 246 237 239 236 233 236 232 227 227
296 303 307 236 222 200 189 199 212 235 239 234 206 290 281 358 279 288 173 139 157 2 62 237 314 146 187 284 298 273 234 253 254 301 269 264 255 251 242 239 233 230 229
293 299 306 290 226 212 217 206 224 231 240 173 189 204 193 255 284 283 278 134 151 209 214 252 204 68 135 181 209 212 233 242 229 237 253 242 252 251 237 237 235 237 234
300 301 307 299 273 208 212 215 225 236 196 137 169 154 148 306 265 262 183 150 169 161 174 191 215 145 152 229 228 216 233 235 230 249 255 260 255 253 247 251 248 235 235
334 321 303 287 276 219 193 186 186 209 181 169 153 150 171 175 249 284 80 205 160 144 158 259 192 175 186 218 237 251 244 222 230 239 250 255 246 242 245 241 235 233 234
308 337 1 9 2 266 190 194 207 208 194 192 182 178 195 188 217 241 231 187 194 184 143 193 197 218 200 224 250 243 250 236 220 213 240 244 250 247 250 250 248 239 228
296 286 320 318 343 334 202 201 193 201 191 186 196 195 198 208 210 220 218 173 179 160 106 119 226 227 238 213 259 241 243 254 227 229 235 226 243 244 253 247 240 245 232
286 281 258 264 255 56 254 237 215 212 219 212 199 205 207 212 225 211 178 185 156 138 159 173 198 265 264 317 180 54 26 316 260 236 245 236 238 250 257 256 247 239 199
274 283 269 234 240 199 157 114 55 346 229 227 223 221 226 232 230 186 169 173 145 134 148 152 155 147 329 12 319 283 114 285 283 227 237 253 223 268 268 234 231 222 210
277 271 264 244 240 249 205 197 166 39 328 247 215 220 201 159 134 131 137 138 145 144 150 139 177 160 221 208 257 280 1 348 304 325 66 311 145 265 245 212 194 197 213
297 299 283 224 229 245 260 273 299 69 329 262 197 178 149 144 130 131 135 139 151 155 155 161 164 190 183 205 188 248 153 167 259 277 88 278 219 265 251 223 199 207 212
288 283 286 271 223 226 231 248 229 44 286 286 206 165 151 156 164 152 147 154 181 175 174 173 178 196 190 221 194 179 164 256 262 256 173 232 216 273 262 207 191 219 226
275 267 269 270 234 237 206 216 172 129 239 253 226 168 167 164 172 155 154 166 180 210 198 193 199 197 202 214 196 101 286 268 296 312 178 170 344 298 263 175 132 82 254
269 263 267 286 250 217 224 196 191 201 223 236 229 117 132 137 109 193 163 169 183 206 190 191 244 223 225 236 186 198 187 233 258 326 70 57 342 349 321 18 102 120 122